Simultaneous Nadir Overpasses (SNOs) Predictions

Prediction of SNOs between NOAA-20 and AQUA Satellite Orbit:

Table of predicted SNOs for the next 14.0 days since TLE Epoch: 7/17/2021
Index Date (NOAA-20) Time (NOAA-20) Lat,Lon (NOAA-20) SZA (NOAA-20 ) Date (AQUA) Time (AQUA) Lat,Lon (AQUA) SZA (AQUA ) Distance(km) Time Diff (sec)
1 07/18/2021 13:39:47 75.85,-146.56 77.28 07/18/2021 13:40:23 75.85,-146.54 77.24 0.72 36
2 07/18/2021 14:30:09 -76.92, 24.67 104.08 07/18/2021 14:29:28 -76.92, 24.63 104.04 1.21 41
3 07/21/2021 05:56:35 76.13, -29.82 77.42 07/21/2021 05:56:46 76.14, -29.77 77.40 1.34 11
4 07/21/2021 06:46:58 -77.15, 141.38 103.88 07/21/2021 06:45:52 -77.15, 141.36 103.82 0.63 66
5 07/23/2021 21:23:01 -75.45, -83.60 101.22 07/23/2021 21:24:04 -75.45, -83.58 101.28 0.62 63
6 07/23/2021 22:13:23 76.46, 87.12 77.54 07/23/2021 22:13:09 76.47, 87.17 77.54 1.60 14
7 07/26/2021 13:39:49 -75.78, 33.23 101.06 07/26/2021 13:40:27 -75.79, 33.26 101.10 0.98 38
8 07/26/2021 14:30:11 76.78,-155.90 77.70 07/26/2021 14:29:32 76.79,-155.85 77.72 1.48 39
9 07/29/2021 05:56:36 -76.16, 150.26 100.92 07/29/2021 05:56:49 -76.16, 150.29 100.94 0.96 13



Historial Predications of SNOs between NOAA-20 and AQUA
